Time,TemperatureF,DewpointF,PressureIn,WindDirection,WindDirectionDegrees,WindSpeedMPH,WindSpeedGustMPH,Humidity,HourlyPrecipIn,Conditions,Clouds,dailyrainin,SolarRadiationWatts/m^2,SoftwareType,DateUTC
2013-01-23 00:23:00,42.0,32.0,30.06,NNW,345,1.0,-999.0,67,0.00,,,-99.99,-2.400000,,2013-01-23 08:23:00,
2013-01-23 00:33:00,42.0,32.0,30.06,NNW,345,1.0,-999.0,67,0.00,,,-99.99,-2.400000,,2013-01-23 08:33:00,
2013-01-23 01:23:00,44.0,31.0,30.05,NNE,17,2.0,-999.0,59,0.00,,,-99.99,-0.300000,,2013-01-23 09:23:00,
2013-01-23 01:33:00,44.0,31.0,30.05,NNE,17,2.0,-999.0,59,0.00,,,-99.99,-0.300000,,2013-01-23 09:33:00,
2013-01-23 01:43:00,44.0,31.0,30.05,NNE,17,2.0,-999.0,59,0.00,,,-99.99,-0.300000,,2013-01-23 09:43:00,
2013-01-23 01:53:00,44.0,31.0,30.05,NNE,17,2.0,-999.0,59,0.00,,,-99.99,-0.300000,,2013-01-23 09:53:00,
2013-01-23 02:00:00,46.0,28.0,30.04,North,11,3.0,-999.0,49,0.00,,,-99.99,-0.800000,,2013-01-23 10:00:00,
2013-01-23 02:23:00,46.0,28.0,30.04,North,11,3.0,-999.0,49,0.00,,,-99.99,-0.800000,,2013-01-23 10:23:00,
2013-01-23 02:33:00,46.0,28.0,30.04,North,11,3.0,-999.0,49,0.00,,,-99.99,-0.800000,,2013-01-23 10:33:00,
2013-01-23 02:43:00,46.0,28.0,30.04,North,11,3.0,-999.0,49,0.00,,,-99.99,-0.800000,,2013-01-23 10:43:00,
2013-01-23 02:53:00,46.0,28.0,30.04,North,11,3.0,-999.0,49,0.00,,,-99.99,-0.800000,,2013-01-23 10:53:00,
2013-01-23 03:00:00,46.0,26.0,30.05,NNE,12,4.0,-999.0,45,0.00,,,-99.99,-1.100000,,2013-01-23 11:00:00,
2013-01-23 03:23:00,46.0,26.0,30.05,NNE,12,4.0,-999.0,45,0.00,,,-99.99,-1.100000,,2013-01-23 11:23:00,
2013-01-23 03:34:00,46.0,26.0,30.05,NNE,12,4.0,-999.0,45,0.00,,,-99.99,-1.100000,,2013-01-23 11:34:00,
2013-01-23 03:43:00,46.0,26.0,30.05,NNE,12,4.0,-999.0,45,0.00,,,-99.99,-1.100000,,2013-01-23 11:43:00,
2013-01-23 03:53:00,46.0,26.0,30.05,NNE,12,4.0,-999.0,45,0.00,,,-99.99,-1.100000,,2013-01-23 11:53:00,
2013-01-23 04:00:00,47.0,26.0,30.03,North,1,6.0,-999.0,44,0.00,,,-99.99,-0.900000,,2013-01-23 12:00:00,
2013-01-23 04:23:00,47.0,26.0,30.03,North,1,6.0,-999.0,44,0.00,,,-99.99,-0.900000,,2013-01-23 12:23:00,
2013-01-23 04:33:00,47.0,26.0,30.03,North,1,6.0,-999.0,44,0.00,,,-99.99,-0.900000,,2013-01-23 12:33:00,
2013-01-23 04:43:00,47.0,26.0,30.03,North,1,6.0,-999.0,44,0.00,,,-99.99,-0.900000,,2013-01-23 12:43:00,
2013-01-23 04:53:00,47.0,26.0,30.03,North,1,6.0,-999.0,44,0.00,,,-99.99,-0.900000,,2013-01-23 12:53:00,
2013-01-23 05:23:00,45.0,27.0,30.00,North,357,5.0,-999.0,49,0.00,,,-99.99,-1.400000,,2013-01-23 13:23:00,
2013-01-23 05:33:00,45.0,27.0,30.00,North,357,5.0,-999.0,49,0.00,,,-99.99,-1.400000,,2013-01-23 13:33:00,
2013-01-23 07:23:00,46.0,27.0,30.00,NNE,22,2.0,-999.0,47,0.00,,,-99.99,-0.900000,,2013-01-23 15:23:00,
2013-01-23 07:33:00,46.0,27.0,30.00,NNE,22,2.0,-999.0,47,0.00,,,-99.99,-0.900000,,2013-01-23 15:33:00,
2013-01-23 08:23:00,45.0,28.0,30.02,NNE,31,2.0,-999.0,51,0.00,,,-99.99,9.300000,,2013-01-23 16:23:00,
2013-01-23 08:33:00,45.0,28.0,30.02,NNE,31,2.0,-999.0,51,0.00,,,-99.99,9.300000,,2013-01-23 16:33:00,
2013-01-23 09:00:00,49.0,26.0,30.03,North,11,6.0,-999.0,39,0.00,,,-99.99,49.299999,,2013-01-23 17:00:00,
2013-01-23 09:23:00,49.0,26.0,30.03,North,11,6.0,-999.0,39,0.00,,,-99.99,49.299999,,2013-01-23 17:23:00,
2013-01-23 09:34:00,49.0,26.0,30.03,North,11,6.0,-999.0,39,0.00,,,-99.99,49.299999,,2013-01-23 17:34:00,
2013-01-23 09:43:00,49.0,26.0,30.03,North,11,6.0,-999.0,39,0.00,,,-99.99,49.299999,,2013-01-23 17:43:00,
2013-01-23 09:53:00,49.0,26.0,30.03,North,11,6.0,-999.0,39,0.00,,,-99.99,49.299999,,2013-01-23 17:53:00,
2013-01-23 12:00:00,61.0,-99.9,30.06,WSW,245,1.0,-999.0,45,0.00,,,-99.99,252.399994,,2013-01-23 20:00:00,
2013-01-23 12:23:00,61.0,39.0,30.06,WSW,245,1.0,-999.0,45,0.00,,,-99.99,252.399994,,2013-01-23 20:23:00,
2013-01-23 12:33:00,61.0,39.0,30.06,WSW,245,1.0,-999.0,45,0.00,,,-99.99,252.399994,,2013-01-23 20:33:00,
2013-01-23 12:43:00,61.0,-99.9,30.06,WSW,245,1.0,-999.0,45,0.00,,,-99.99,252.399994,,2013-01-23 20:43:00,
2013-01-23 12:54:00,61.0,-99.9,30.06,WSW,245,1.0,-999.0,45,0.00,,,-99.99,252.399994,,2013-01-23 20:54:00,
2013-01-23 14:00:00,63.0,31.0,30.05,South,179,1.0,-999.0,30,0.00,,,-99.99,238.899994,,2013-01-23 22:00:00,
2013-01-23 14:23:00,63.0,31.0,30.05,South,179,1.0,-999.0,30,0.00,,,-99.99,238.899994,,2013-01-23 22:23:00,
2013-01-23 14:33:00,63.0,31.0,30.05,South,179,1.0,-999.0,30,0.00,,,-99.99,238.899994,,2013-01-23 22:33:00,
2013-01-23 14:43:00,63.0,31.0,30.05,South,179,1.0,-999.0,30,0.00,,,-99.99,238.899994,,2013-01-23 22:43:00,
2013-01-23 14:53:00,63.0,31.0,30.05,South,179,1.0,-999.0,30,0.00,,,-99.99,238.899994,,2013-01-23 22:53:00,
2013-01-23 15:00:00,61.0,29.0,30.05,SSW,213,1.0,-999.0,29,0.00,,,-99.99,150.899994,,2013-01-23 23:00:00,
2013-01-23 15:23:00,61.0,29.0,30.05,SSW,213,1.0,-999.0,29,0.00,,,-99.99,150.899994,,2013-01-23 23:23:00,
2013-01-23 15:33:00,61.0,29.0,30.05,SSW,213,1.0,-999.0,29,0.00,,,-99.99,150.899994,,2013-01-23 23:33:00,
2013-01-23 15:43:00,61.0,29.0,30.05,SSW,213,1.0,-999.0,29,0.00,,,-99.99,150.899994,,2013-01-23 23:43:00,
2013-01-23 15:53:00,61.0,29.0,30.05,SSW,213,1.0,-999.0,29,0.00,,,-99.99,150.899994,,2013-01-23 23:53:00,
2013-01-23 16:00:00,57.0,26.0,30.07,SSW,199,4.0,-999.0,30,0.00,,,-99.99,58.799999,,2013-01-24 00:00:00,
2013-01-23 16:22:00,57.0,26.0,30.07,SSW,199,4.0,-999.0,30,0.00,,,-99.99,58.799999,,2013-01-24 00:22:00,
2013-01-23 16:33:00,57.0,26.0,30.07,SSW,199,4.0,-999.0,30,0.00,,,-99.99,58.799999,,2013-01-24 00:33:00,
2013-01-23 16:43:00,57.0,26.0,30.07,SSW,199,4.0,-999.0,30,0.00,,,-99.99,58.799999,,2013-01-24 00:43:00,
2013-01-23 16:53:00,57.0,26.0,30.07,SSW,199,4.0,-999.0,30,0.00,,,-99.99,58.799999,,2013-01-24 00:53:00,
2013-01-23 17:00:00,50.0,43.0,30.10,South,177,0.0,-999.0,76,0.01,,,-99.99,8.000000,,2013-01-24 01:00:00,
2013-01-23 17:23:00,50.0,43.0,30.10,South,177,0.0,-999.0,76,0.01,,,-99.99,8.000000,,2013-01-24 01:23:00,
2013-01-23 17:33:00,50.0,43.0,30.10,South,177,0.0,-999.0,76,0.01,,,-99.99,8.000000,,2013-01-24 01:33:00,
2013-01-23 17:43:00,50.0,43.0,30.10,South,177,0.0,-999.0,76,0.01,,,-99.99,8.000000,,2013-01-24 01:43:00,
2013-01-23 17:52:00,50.0,43.0,30.10,South,177,0.0,-999.0,76,0.01,,,-99.99,8.000000,,2013-01-24 01:52:00,
2013-01-23 18:00:00,46.0,45.0,30.08,NNE,18,3.0,-999.0,94,0.00,,,-99.99,-0.200000,,2013-01-24 02:00:00,
2013-01-23 18:23:00,46.0,45.0,30.08,NNE,18,3.0,-999.0,94,0.00,,,-99.99,-0.200000,,2013-01-24 02:23:00,
2013-01-23 18:33:00,46.0,45.0,30.08,NNE,18,3.0,-999.0,94,0.00,,,-99.99,-0.200000,,2013-01-24 02:33:00,
2013-01-23 18:42:00,46.0,45.0,30.08,NNE,18,3.0,-999.0,94,0.00,,,-99.99,-0.200000,,2013-01-24 02:42:00,
2013-01-23 18:52:00,46.0,45.0,30.08,NNE,18,3.0,-999.0,94,0.00,,,-99.99,-0.200000,,2013-01-24 02:52:00,
2013-01-23 19:00:00,48.0,43.0,30.09,North,357,4.0,-999.0,84,0.00,,,-99.99,1.200000,,2013-01-24 03:00:00,
2013-01-23 19:22:00,48.0,43.0,30.09,North,357,4.0,-999.0,84,0.00,,,-99.99,1.200000,,2013-01-24 03:22:00,
2013-01-23 19:33:00,48.0,43.0,30.09,North,357,4.0,-999.0,84,0.00,,,-99.99,1.200000,,2013-01-24 03:33:00,
2013-01-23 19:43:00,48.0,43.0,30.09,North,357,4.0,-999.0,84,0.00,,,-99.99,1.200000,,2013-01-24 03:43:00,
2013-01-23 19:52:00,48.0,43.0,30.09,North,357,4.0,-999.0,84,0.00,,,-99.99,1.200000,,2013-01-24 03:52:00,
2013-01-23 20:00:00,47.0,43.0,30.09,NNE,29,3.0,-999.0,88,0.00,,,-99.99,-0.100000,,2013-01-24 04:00:00,
2013-01-23 20:22:00,47.0,43.0,30.09,NNE,29,3.0,-999.0,88,0.00,,,-99.99,-0.100000,,2013-01-24 04:22:00,
2013-01-23 20:33:00,47.0,43.0,30.09,NNE,29,3.0,-999.0,88,0.00,,,-99.99,-0.100000,,2013-01-24 04:33:00,
2013-01-23 20:43:00,47.0,43.0,30.09,NNE,29,3.0,-999.0,88,0.00,,,-99.99,-0.100000,,2013-01-24 04:43:00,
2013-01-23 20:53:00,47.0,43.0,30.09,NNE,29,3.0,-999.0,88,0.00,,,-99.99,-0.100000,,2013-01-24 04:53:00,
2013-01-23 21:00:00,49.0,42.0,30.09,NNE,23,5.0,-999.0,76,0.00,,,-99.99,0.900000,,2013-01-24 05:00:00,
2013-01-23 21:23:00,49.0,42.0,30.09,NNE,23,5.0,-999.0,76,0.00,,,-99.99,0.900000,,2013-01-24 05:23:00,
2013-01-23 21:33:00,49.0,42.0,30.09,NNE,23,5.0,-999.0,76,0.00,,,-99.99,0.900000,,2013-01-24 05:33:00,
2013-01-23 21:43:00,49.0,42.0,30.09,NNE,23,5.0,-999.0,76,0.00,,,-99.99,0.900000,,2013-01-24 05:43:00,
2013-01-23 21:53:00,49.0,42.0,30.09,NNE,23,5.0,-999.0,76,0.00,,,-99.99,0.900000,,2013-01-24 05:53:00,
2013-01-23 23:00:00,47.0,43.0,30.09,North,8,2.0,-999.0,87,0.00,,,-99.99,-1.000000,,2013-01-24 07:00:00,
2013-01-23 23:23:00,47.0,43.0,30.09,North,8,2.0,-999.0,87,0.00,,,-99.99,-1.000000,,2013-01-24 07:23:00,
2013-01-23 23:33:00,47.0,43.0,30.09,North,8,2.0,-999.0,87,0.00,,,-99.99,-1.000000,,2013-01-24 07:33:00,
2013-01-23 23:43:00,47.0,43.0,30.09,North,8,2.0,-999.0,87,0.00,,,-99.99,-1.000000,,2013-01-24 07:43:00,
2013-01-23 23:53:00,47.0,43.0,30.09,North,8,2.0,-999.0,87,0.00,,,-99.99,-1.000000,,2013-01-24 07:53:00,